EW9978 Weather Reports


Display with metric or nautical units.
time (UTC)temp
F
wind
direction
speed
MPH
gust
MPH
rain 1hr
in
rain 24hr
in
rain mn
in
humidity
%
barometer
mb
20260507005338 68 281 5.0 10.0 0.00 0.00 0.00 76 -0.1
20260507003821 68 249 4.0 13.0 0.00 0.00 0.00 78 -0.1
20260507003329 68 289 9.0 13.0 0.00 0.00 0.00 76 -0.1
20260507002324 69 280 10.0 13.0 0.00 0.00 0.00 75 -0.1
20260507000826 69 281 5.0 13.0 0.00 0.00 0.00 76 -0.1
20260507000335 68 234 5.0 12.0 0.00 0.00 0.00 77 -0.1
20260506235830 68 267 6.0 14.0 0.00 0.00 0.00 76 -0.1
20260506235322 68 285 8.0 14.0 0.00 0.00 0.00 77 -0.1
20260506234822 68 279 4.0 12.0 0.00 0.00 0.00 76 -0.1
20260506233836 69 248 7.0 13.0 0.00 0.00 0.00 77 -0.1
20260506233334 69 270 6.0 14.0 0.00 0.00 0.00 75 -0.1
20260506232823 69 255 8.0 12.0 0.00 0.00 0.00 75 -0.1
20260506231336 68 267 7.0 14.0 0.00 0.00 0.00 75 -0.1
20260506230324 68 283 8.0 12.0 0.00 0.00 0.00 75 -0.1
20260506225829 68 278 7.0 12.0 0.00 0.00 0.00 75 -0.1
20260506225335 68 303 6.0 14.0 0.00 0.00 0.00 76 -0.1
20260506223329 68 214 7.0 17.0 0.00 0.00 0.00 75 -0.1
20260506222830 68 337 8.0 17.0 0.00 0.00 0.00 76 -0.1
20260506221837 68 265 10.0 15.0 0.00 0.00 0.00 74 -0.1
20260506221324 68 246 8.0 17.0 0.00 0.00 0.00 77 -0.1
20260506215824 69 286 9.0 16.0 0.00 0.00 0.00 74 -0.1
20260506214839 69 292 7.0 14.0 0.00 0.00 0.00 75 -0.1
20260506213833 69 252 7.0 15.0 0.00 0.00 0.00 75 -0.1
20260506213339 69 281 6.0 15.0 0.00 0.00 0.00 75 -0.1
20260506212825 68 282 6.0 15.0 0.00 0.00 0.00 74 -0.1
20260506212330 69 299 8.0 15.0 0.00 0.00 0.00 74 -0.1
20260506211834 69 258 8.0 14.0 0.00 0.00 0.00 72 -0.1
20260506211322 69 288 8.0 14.0 0.00 0.00 0.00 71 -0.1
20260506204832 69 324 9.0 17.0 0.00 0.00 0.00 73 -0.1
20260506204336 69 288 7.0 17.0 0.00 0.00 0.00 74 -0.1
20260506203823 69 286 6.0 17.0 0.00 0.00 0.00 73 -0.1
20260506202820 68 286 4.0 12.0 0.00 0.00 0.00 74 -0.1
20260506201829 68 271 11.0 15.0 0.00 0.00 0.00 71 -0.1
20260506201335 68 302 10.0 14.0 0.00 0.00 0.00 71 -0.1
20260506192826 68 251 8.0 13.0 0.00 0.00 0.00 73 -0.1
20260506191828 68 267 6.0 14.0 0.00 0.00 0.00 72 -0.1
20260506190821 68 280 6.0 14.0 0.00 0.00 0.00 72 -0.1
20260506190331 68 236 6.0 12.0 0.00 0.00 0.00 73 -0.1
20260506185837 68 297 4.0 12.0 0.00 0.00 0.00 73 -0.1
20260506184819 68 273 6.0 11.0 0.00 0.00 0.00 74 -0.1
20260506183343 67 250 9.0 14.0 0.00 0.00 0.00 75 -0.1
20260506182337 67 303 3.0 12.0 0.00 0.00 0.00 74 -0.1
20260506181328 67 260 4.0 12.0 0.00 0.00 0.00 74 -0.1
20260506050830 58 0.0 0.0 0.00 0.41 0.41 83 -0.1
20260506044332 58 0.0 0.0 0.00 0.41 0.41 83 -0.1
20260506043323 58 0.0 0.0 0.00 0.41 0.41 83 -0.1
20260506040825 59 0.0 0.0 0.00 0.41 0.41 82 -0.1
20260506040335 59 0.0 0.0 0.00 0.41 0.41 82 -0.1
20260506035332 59 0.0 0.0 0.00 0.41 0.41 81 -0.1
20260506034827 59 0.0 0.0 0.00 0.41 0.41 81 -0.1
20260506033330 59 0.0 0.0 0.00 0.41 0.41 80 -0.1
20260506032835 59 0.0 0.0 0.00 0.41 0.41 80 -0.1
20260506031823 59 0.0 0.0 0.00 0.41 0.41 80 -0.1
20260506030839 60 0.0 0.0 0.00 0.41 0.41 79 -0.1
20260506030324 60 0.0 0.0 0.00 0.41 0.41 79 -0.1
20260506025830 60 0.0 0.0 0.00 0.41 0.41 79 -0.1
20260506024825 60 0.0 0.0 0.00 0.41 0.41 78 -0.1
20260506023829 60 0.0 0.0 0.00 0.41 0.41 78 -0.1
20260506023336 60 0.0 0.0 0.00 0.41 0.41 78 -0.1
20260506022834 60 280 1.0 5.0 0.00 0.41 0.41 77 -0.1
20260506022320 60 280 1.0 9.0 0.00 0.41 0.41 77 -0.1
20260506021820 60 252 2.0 12.0 0.00 0.41 0.41 76 -0.1
20260506020837 61 246 3.0 7.0 0.00 0.41 0.41 76 -0.1
20260506015338 62 270 5.0 11.0 0.00 0.41 0.41 74 -0.1
20260506014831 62 264 5.0 11.0 0.00 0.41 0.41 74 -0.1
20260506013825 63 269 6.0 12.0 0.00 0.41 0.41 72 -0.1
20260506013337 63 277 5.0 13.0 0.00 0.41 0.41 71 -0.1
20260506011834 64 298 5.0 13.0 0.00 0.41 0.41 69 -0.1